Terminal Aerodrome Forecast
Issued by NWS

Home | Current Version | Previous Version | Text Only | Print | Product List | Glossary On
Versions: 1 2 3 4 5 6 7 8 9 10 11 12 13 14 15 16 17 18 19 20 21 22 23 24 25 26
000
FTUS41 KBUF 221514 AAA
TAFIAG
TAF AMD
KIAG 221514Z 2215/2312 19005KT P6SM SCT035 SCT070
      TEMPO 2217/2220 BKN035 BKN070
     FM222000 22013KT 3SM BR BKN025
     FM230300 20008KT P6SM BKN020
     FM230400 20009KT 3SM BR BKN025=

USA.gov is the U.S. government's official web portal to all federal, state and local government web resources and services.